Time,TemperatureF,DewpointF,PressureIn,WindDirection,WindDirectionDegrees,WindSpeedMPH,WindSpeedGustMPH,Humidity,HourlyPrecipIn,Conditions,Clouds,dailyrainin,SoftwareType,DateUTC
2013-01-13 00:04:00,37.9,35.3,30.16,SW,229,0.0,0.0,90,0.00,RA,,0.00,WeatherDisplay:10.37,2013-01-13 05:04:00,
2013-01-13 00:10:00,37.9,35.3,30.16,SW,225,0.0,0.0,90,0.00,CLR,,0.00,WeatherDisplay:10.37,2013-01-13 05:10:00,
2013-01-13 00:20:00,38.0,35.4,30.16,SW,225,0.0,0.0,90,0.00,CLR,,0.00,WeatherDisplay:10.37,2013-01-13 05:20:00,
2013-01-13 00:24:00,37.9,35.3,30.16,SW,225,0.0,0.0,90,0.00,CLR,,0.00,WeatherDisplay:10.37,2013-01-13 05:24:00,
2013-01-13 00:30:00,37.9,35.3,30.16,SW,225,0.0,0.0,90,0.00,CLR,,0.00,WeatherDisplay:10.37,2013-01-13 05:30:00,
2013-01-13 00:40:00,38.0,35.3,30.15,SW,219,0.0,0.0,90,0.00,CLR,,0.00,WeatherDisplay:10.37,2013-01-13 05:40:00,
2013-01-13 00:50:00,38.0,35.3,30.15,SW,223,0.0,1.0,90,0.00,CLR,,0.00,WeatherDisplay:10.37,2013-01-13 05:50:00,
2013-01-13 00:59:00,38.1,35.7,30.16,SW,225,0.0,0.0,91,0.00,CLR,,0.00,WeatherDisplay:10.37,2013-01-13 05:59:00,
2013-01-13 01:04:00,38.1,35.7,30.16,SW,225,0.0,0.0,91,0.00,CLR,,0.00,WeatherDisplay:10.37,2013-01-13 06:04:00,
2013-01-13 01:10:00,38.1,35.7,30.16,SW,225,0.0,0.0,91,0.00,CLR,,0.00,WeatherDisplay:10.37,2013-01-13 06:10:00,
2013-01-13 01:20:00,37.8,35.4,30.15,SW,225,0.0,0.0,91,0.00,CLR,,0.00,WeatherDisplay:10.37,2013-01-13 06:20:00,
2013-01-13 01:30:00,37.6,35.2,30.16,SW,225,0.0,0.0,91,0.00,CLR,,0.00,WeatherDisplay:10.37,2013-01-13 06:30:00,
2013-01-13 01:40:00,37.6,35.2,30.16,SW,225,0.0,0.0,91,0.00,CLR,,0.00,WeatherDisplay:10.37,2013-01-13 06:40:00,
2013-01-13 01:50:00,37.6,35.2,30.17,SW,225,0.0,0.0,91,0.00,CLR,,0.00,WeatherDisplay:10.37,2013-01-13 06:50:00,
2013-01-13 01:59:00,37.6,35.2,30.17,SW,217,0.0,1.0,91,0.00,CLR,,0.00,WeatherDisplay:10.37,2013-01-13 06:59:00,
2013-01-13 02:04:00,37.6,35.2,30.17,SSW,205,0.0,0.0,91,0.00,CLR,,0.00,WeatherDisplay:10.37,2013-01-13 07:04:00,
2013-01-13 02:10:00,37.6,35.2,30.17,SSW,202,0.0,0.0,91,0.00,CLR,,0.00,WeatherDisplay:10.37,2013-01-13 07:10:00,
2013-01-13 02:20:00,37.8,35.4,30.17,SW,225,0.0,0.0,91,0.00,CLR,,0.00,WeatherDisplay:10.37,2013-01-13 07:20:00,
2013-01-13 02:30:00,37.8,35.4,30.17,SW,225,0.0,0.0,91,0.00,CLR,,0.00,WeatherDisplay:10.37,2013-01-13 07:30:00,
2013-01-13 02:40:00,37.9,35.5,30.17,SW,225,0.0,0.0,91,0.00,CLR,,0.00,WeatherDisplay:10.37,2013-01-13 07:40:00,
2013-01-13 02:50:00,37.8,35.4,30.17,WSW,248,0.0,0.0,91,0.00,CLR,,0.00,WeatherDisplay:10.37,2013-01-13 07:50:00,
2013-01-13 02:59:00,37.6,35.2,30.16,West,263,0.0,0.0,91,0.00,CLR,,0.00,WeatherDisplay:10.37,2013-01-13 07:59:00,
2013-01-13 03:04:00,37.7,35.3,30.16,WSW,245,0.0,5.0,91,0.00,CLR,,0.00,WeatherDisplay:10.37,2013-01-13 08:04:00,
2013-01-13 03:10:00,37.8,35.4,30.16,SW,229,1.0,5.0,91,0.00,CLR,,0.00,WeatherDisplay:10.37,2013-01-13 08:10:00,
2013-01-13 03:20:00,37.8,35.4,30.16,SW,225,0.0,0.0,91,0.00,CLR,,0.00,WeatherDisplay:10.37,2013-01-13 08:20:00,
2013-01-13 03:30:00,37.9,35.5,30.15,SSW,206,0.0,0.0,91,0.00,CLR,,0.00,WeatherDisplay:10.37,2013-01-13 08:30:00,
2013-01-13 03:40:00,38.1,35.7,30.16,SW,224,0.0,0.0,91,0.00,CLR,,0.00,WeatherDisplay:10.37,2013-01-13 08:40:00,
2013-01-13 03:50:00,37.9,35.5,30.14,SW,225,0.0,0.0,91,0.00,CLR,,0.00,WeatherDisplay:10.37,2013-01-13 08:50:00,
2013-01-13 03:59:00,37.8,35.5,30.14,SW,225,0.0,0.0,91,0.00,CLR,,0.00,WeatherDisplay:10.37,2013-01-13 08:59:00,
2013-01-13 04:04:00,37.7,35.3,30.13,SW,225,0.0,0.0,91,0.00,CLR,,0.00,WeatherDisplay:10.37,2013-01-13 09:04:00,
2013-01-13 04:10:00,37.6,35.2,30.14,SW,225,0.0,0.0,91,0.00,CLR,,0.00,WeatherDisplay:10.37,2013-01-13 09:10:00,
2013-01-13 04:20:00,37.1,34.7,30.14,SW,225,0.0,0.0,91,0.00,CLR,,0.00,WeatherDisplay:10.37,2013-01-13 09:20:00,
2013-01-13 04:30:00,37.4,35.0,30.13,SW,225,0.0,0.0,91,0.00,CLR,,0.00,WeatherDisplay:10.37,2013-01-13 09:30:00,
2013-01-13 04:40:00,37.3,35.0,30.13,SW,225,0.0,0.0,91,0.00,CLR,,0.00,WeatherDisplay:10.37,2013-01-13 09:40:00,
2013-01-13 04:50:00,37.3,34.9,30.14,SW,225,0.0,0.0,91,0.00,CLR,,0.00,WeatherDisplay:10.37,2013-01-13 09:50:00,
2013-01-13 04:59:00,37.4,35.0,30.13,SW,225,0.0,0.0,91,0.00,CLR,,0.00,WeatherDisplay:10.37,2013-01-13 09:59:00,
2013-01-13 05:04:00,37.2,34.8,30.13,SW,225,0.0,14.0,91,0.00,CLR,,0.00,WeatherDisplay:10.37,2013-01-13 10:04:00,
2013-01-13 05:10:00,37.0,34.7,30.12,SW,225,0.0,0.0,91,0.00,CLR,,0.00,WeatherDisplay:10.37,2013-01-13 10:10:00,
2013-01-13 05:20:00,36.9,34.5,30.14,SW,225,0.0,0.0,91,0.02,RA,,0.02,WeatherDisplay:10.37,2013-01-13 10:20:00,
2013-01-13 05:30:00,36.9,34.5,30.14,WSW,258,0.0,0.0,91,0.00,CLR,,0.02,WeatherDisplay:10.37,2013-01-13 10:30:00,
2013-01-13 05:40:00,37.0,34.9,30.14,West,270,0.0,0.0,92,0.00,CLR,,0.02,WeatherDisplay:10.37,2013-01-13 10:40:00,
2013-01-13 05:50:00,37.0,34.9,30.13,West,270,0.0,0.0,92,0.00,CLR,,0.02,WeatherDisplay:10.37,2013-01-13 10:50:00,
2013-01-13 05:59:00,36.9,34.5,30.13,West,270,0.0,14.0,91,0.00,CLR,,0.02,WeatherDisplay:10.37,2013-01-13 10:59:00,
2013-01-13 06:04:00,36.9,34.5,30.13,West,270,0.0,0.0,91,0.00,CLR,,0.02,WeatherDisplay:10.37,2013-01-13 11:04:00,
2013-01-13 06:10:00,36.5,34.1,30.13,West,270,0.0,0.0,91,0.00,CLR,,0.02,WeatherDisplay:10.37,2013-01-13 11:10:00,
2013-01-13 06:20:00,36.5,34.1,30.13,West,270,0.0,0.0,91,0.00,CLR,,0.02,WeatherDisplay:10.37,2013-01-13 11:20:00,
2013-01-13 06:30:00,36.5,34.1,30.14,West,270,0.0,0.0,91,0.00,CLR,,0.02,WeatherDisplay:10.37,2013-01-13 11:30:00,
2013-01-13 06:40:00,36.5,34.1,30.14,West,270,0.0,0.0,91,0.00,CLR,,0.02,WeatherDisplay:10.37,2013-01-13 11:40:00,
2013-01-13 06:50:00,36.9,34.8,30.15,WSW,257,0.0,0.0,92,0.00,CLR,,0.02,WeatherDisplay:10.37,2013-01-13 11:50:00,
2013-01-13 06:59:00,37.2,35.1,30.16,West,270,0.0,0.0,92,0.00,CLR,,0.02,WeatherDisplay:10.37,2013-01-13 11:59:00,
2013-01-13 07:04:00,37.2,35.1,30.15,West,262,0.0,0.0,92,0.00,CLR,,0.02,WeatherDisplay:10.37,2013-01-13 12:04:00,
2013-01-13 07:10:00,37.4,35.3,30.14,WSW,247,0.0,14.0,92,0.00,CLR,,0.02,WeatherDisplay:10.37,2013-01-13 12:10:00,
2013-01-13 07:20:00,37.6,35.5,30.15,SW,225,0.0,0.0,92,0.00,CLR,,0.02,WeatherDisplay:10.37,2013-01-13 12:20:00,
2013-01-13 07:30:00,37.6,35.5,30.16,SW,225,0.0,0.0,92,0.00,CLR,,0.02,WeatherDisplay:10.37,2013-01-13 12:30:00,
2013-01-13 07:40:00,37.7,35.6,30.16,SW,225,0.0,0.0,92,0.00,CLR,,0.02,WeatherDisplay:10.37,2013-01-13 12:40:00,
2013-01-13 07:50:00,37.8,35.6,30.16,SW,225,0.0,1.0,92,0.00,CLR,,0.02,WeatherDisplay:10.37,2013-01-13 12:50:00,
2013-01-13 07:59:00,38.1,36.0,30.16,SW,214,0.0,0.0,92,0.00,CLR,,0.02,WeatherDisplay:10.37,2013-01-13 12:59:00,
2013-01-13 08:04:00,38.1,36.0,30.16,SW,225,0.0,0.0,92,0.00,CLR,,0.02,WeatherDisplay:10.37,2013-01-13 13:04:00,
2013-01-13 08:10:00,38.2,36.3,30.16,SW,225,0.0,0.0,93,0.00,CLR,,0.02,WeatherDisplay:10.37,2013-01-13 13:10:00,
2013-01-13 08:20:00,38.5,36.6,30.16,WSW,241,0.0,0.0,93,0.00,CLR,,0.02,WeatherDisplay:10.37,2013-01-13 13:20:00,
2013-01-13 08:30:00,38.7,36.8,30.15,WSW,247,0.0,0.0,93,0.00,CLR,,0.02,WeatherDisplay:10.37,2013-01-13 13:30:00,
2013-01-13 08:40:00,39.0,37.1,30.16,SW,225,0.0,0.0,93,0.00,CLR,,0.02,WeatherDisplay:10.37,2013-01-13 13:40:00,
2013-01-13 08:50:00,39.4,37.5,30.16,SW,225,0.0,0.0,93,0.00,CLR,,0.02,WeatherDisplay:10.37,2013-01-13 13:50:00,
2013-01-13 09:00:00,39.8,38.0,30.16,SW,225,0.0,0.0,93,0.00,CLR,,0.02,WeatherDisplay:10.37,2013-01-13 14:00:00,
2013-01-13 09:10:00,40.2,38.6,30.16,SW,225,0.0,0.0,94,0.00,CLR,,0.02,WeatherDisplay:10.37,2013-01-13 14:10:00,
2013-01-13 09:20:00,40.6,39.0,30.16,SW,225,2.0,14.0,94,0.00,CLR,,0.02,WeatherDisplay:10.37,2013-01-13 14:20:00,
2013-01-13 09:30:00,41.1,39.5,30.16,SW,225,0.0,0.0,94,0.00,CLR,,0.02,WeatherDisplay:10.37,2013-01-13 14:30:00,
2013-01-13 09:40:00,41.2,39.6,30.16,SW,225,0.0,0.0,94,0.00,CLR,,0.02,WeatherDisplay:10.37,2013-01-13 14:40:00,
2013-01-13 09:50:00,41.2,40.2,30.17,SW,225,0.0,0.0,96,0.00,CLR,,0.02,WeatherDisplay:10.37,2013-01-13 14:50:00,
2013-01-13 09:59:00,41.4,40.3,30.17,SW,225,0.0,0.0,96,0.00,CLR,,0.02,WeatherDisplay:10.37,2013-01-13 14:59:00,
2013-01-13 10:04:00,41.5,40.5,30.17,SW,230,0.0,0.0,96,0.00,CLR,,0.02,WeatherDisplay:10.37,2013-01-13 15:04:00,
2013-01-13 10:10:00,41.9,40.8,30.17,WSW,252,0.0,0.0,96,0.00,CLR,,0.02,WeatherDisplay:10.37,2013-01-13 15:10:00,
2013-01-13 10:20:00,42.4,41.4,30.17,WSW,248,0.0,0.0,96,0.00,CLR,,0.02,WeatherDisplay:10.37,2013-01-13 15:20:00,
2013-01-13 10:30:00,43.0,41.9,30.16,SW,214,1.0,5.0,96,0.00,CLR,,0.02,WeatherDisplay:10.37,2013-01-13 15:30:00,
2013-01-13 10:40:00,43.0,41.9,30.16,SW,223,0.0,0.0,96,0.00,CLR,,0.02,WeatherDisplay:10.37,2013-01-13 15:40:00,
2013-01-13 10:50:00,43.5,42.4,30.16,SW,231,0.0,0.0,96,0.00,CLR,,0.02,WeatherDisplay:10.37,2013-01-13 15:50:00,
2013-01-13 10:59:00,43.9,42.9,30.15,South,191,0.0,2.0,96,0.00,CLR,,0.02,WeatherDisplay:10.37,2013-01-13 15:59:00,
2013-01-13 11:04:00,44.1,43.0,30.15,SSW,198,0.0,0.0,96,0.00,CLR,,0.02,WeatherDisplay:10.37,2013-01-13 16:04:00,
2013-01-13 11:10:00,44.2,43.2,30.15,SSW,204,1.0,6.0,96,0.00,CLR,,0.02,WeatherDisplay:10.37,2013-01-13 16:10:00,
2013-01-13 11:20:00,44.4,43.3,30.15,SW,227,0.0,2.0,96,0.00,CLR,,0.02,WeatherDisplay:10.37,2013-01-13 16:20:00,
2013-01-13 11:30:00,44.4,43.3,30.14,SW,230,0.0,0.0,96,0.00,CLR,,0.02,WeatherDisplay:10.37,2013-01-13 16:30:00,
2013-01-13 11:40:00,44.8,43.7,30.13,SSW,208,0.0,2.0,96,0.00,CLR,,0.02,WeatherDisplay:10.37,2013-01-13 16:40:00,
2013-01-13 11:50:00,45.3,44.2,30.13,SSW,206,0.0,0.0,96,0.00,CLR,,0.02,WeatherDisplay:10.37,2013-01-13 16:50:00,
2013-01-13 11:59:00,45.7,44.6,30.13,SW,216,0.0,8.0,96,0.00,CLR,,0.02,WeatherDisplay:10.37,2013-01-13 16:59:00,
2013-01-13 12:10:00,45.8,44.8,30.12,SSW,210,0.0,0.0,96,0.00,CLR,,0.02,WeatherDisplay:10.37,2013-01-13 17:10:00,
2013-01-13 12:20:00,46.2,45.1,30.12,SSW,202,0.0,0.0,96,0.00,CLR,,0.02,WeatherDisplay:10.37,2013-01-13 17:20:00,
2013-01-13 12:30:00,46.2,45.1,30.12,SW,217,1.0,4.0,96,0.00,CLR,,0.02,WeatherDisplay:10.37,2013-01-13 17:30:00,
2013-01-13 12:40:00,46.1,45.0,30.11,SW,222,1.0,4.0,96,0.00,CLR,,0.02,WeatherDisplay:10.37,2013-01-13 17:40:00,
2013-01-13 12:50:00,46.3,45.2,30.11,SW,232,0.0,0.0,96,0.00,CLR,,0.02,WeatherDisplay:10.37,2013-01-13 17:50:00,
2013-01-13 12:59:00,46.2,45.1,30.11,SW,228,0.0,4.0,96,0.00,CLR,,0.02,WeatherDisplay:10.37,2013-01-13 17:59:00,
2013-01-13 13:04:00,46.0,45.0,30.11,SW,215,0.0,6.0,96,0.00,CLR,,0.02,WeatherDisplay:10.37,2013-01-13 18:04:00,
2013-01-13 13:10:00,45.9,44.8,30.11,SSW,211,0.0,0.0,96,0.00,CLR,,0.02,WeatherDisplay:10.37,2013-01-13 18:10:00,
2013-01-13 13:20:00,45.5,44.4,30.11,SW,219,0.0,6.0,96,0.00,CLR,,0.02,WeatherDisplay:10.37,2013-01-13 18:20:00,
2013-01-13 13:30:00,45.7,44.6,30.10,SW,224,0.0,6.0,96,0.00,CLR,,0.02,WeatherDisplay:10.37,2013-01-13 18:30:00,
2013-01-13 13:40:00,45.6,44.5,30.10,SW,224,0.0,9.0,96,0.00,CLR,,0.02,WeatherDisplay:10.37,2013-01-13 18:40:00,
2013-01-13 13:50:00,45.7,44.6,30.09,SW,222,0.0,7.0,96,0.00,CLR,,0.02,WeatherDisplay:10.37,2013-01-13 18:50:00,
2013-01-13 13:59:00,45.8,44.7,30.08,SW,217,0.0,3.0,96,0.00,CLR,,0.02,WeatherDisplay:10.37,2013-01-13 18:59:00,
2013-01-13 14:04:00,45.7,44.7,30.08,SW,216,1.0,4.0,96,0.00,CLR,,0.02,WeatherDisplay:10.37,2013-01-13 19:04:00,
2013-01-13 14:10:00,45.8,44.7,30.08,SSW,210,0.0,3.0,96,0.00,CLR,,0.02,WeatherDisplay:10.37,2013-01-13 19:10:00,
2013-01-13 14:20:00,45.9,44.8,30.08,SW,225,1.0,7.0,96,0.00,CLR,,0.02,WeatherDisplay:10.37,2013-01-13 19:20:00,
2013-01-13 14:30:00,45.9,44.8,30.09,WSW,242,2.0,5.0,96,0.00,CLR,,0.02,WeatherDisplay:10.37,2013-01-13 19:30:00,
2013-01-13 14:40:00,45.9,44.8,30.08,SW,234,3.0,7.0,96,0.00,CLR,,0.02,WeatherDisplay:10.37,2013-01-13 19:40:00,
2013-01-13 14:50:00,45.9,44.8,30.09,SW,234,0.0,3.0,96,0.00,CLR,,0.02,WeatherDisplay:10.37,2013-01-13 19:50:00,
2013-01-13 14:59:00,45.5,44.4,30.08,SW,232,0.0,7.0,96,0.00,CLR,,0.02,WeatherDisplay:10.37,2013-01-13 19:59:00,
2013-01-13 15:10:00,45.5,44.4,30.08,SW,228,2.0,6.0,96,0.00,CLR,,0.02,WeatherDisplay:10.37,2013-01-13 20:10:00,
2013-01-13 15:20:00,45.5,44.4,30.07,SSW,205,0.0,0.0,96,0.00,CLR,,0.02,WeatherDisplay:10.37,2013-01-13 20:20:00,
2013-01-13 15:30:00,45.5,44.4,30.08,SW,220,0.0,9.0,96,0.00,CLR,,0.02,WeatherDisplay:10.37,2013-01-13 20:30:00,
2013-01-13 15:40:00,45.6,44.6,30.08,SW,219,0.0,0.0,96,0.00,CLR,,0.02,WeatherDisplay:10.37,2013-01-13 20:40:00,
2013-01-13 15:50:00,45.5,44.4,30.08,SSW,208,0.0,2.0,96,0.00,CLR,,0.02,WeatherDisplay:10.37,2013-01-13 20:50:00,
2013-01-13 15:59:00,45.5,44.4,30.07,SW,221,1.0,3.0,96,0.00,CLR,,0.02,WeatherDisplay:10.37,2013-01-13 20:59:00,
2013-01-13 16:04:00,45.3,44.2,30.07,SW,224,0.0,0.0,96,0.00,CLR,,0.02,WeatherDisplay:10.37,2013-01-13 21:04:00,
2013-01-13 16:10:00,45.3,44.2,30.07,SW,227,0.0,3.0,96,0.00,CLR,,0.02,WeatherDisplay:10.37,2013-01-13 21:10:00,
2013-01-13 16:20:00,45.1,44.1,30.07,SW,219,1.0,5.0,96,0.00,CLR,,0.02,WeatherDisplay:10.37,2013-01-13 21:20:00,
2013-01-13 16:30:00,45.0,44.0,30.06,SW,218,0.0,3.0,96,0.00,CLR,,0.02,WeatherDisplay:10.37,2013-01-13 21:30:00,
2013-01-13 16:40:00,45.2,44.1,30.06,SSW,206,3.0,15.0,96,0.00,CLR,,0.02,WeatherDisplay:10.37,2013-01-13 21:40:00,
2013-01-13 16:50:00,45.3,44.2,30.05,SSW,208,1.0,8.0,96,0.00,CLR,,0.02,WeatherDisplay:10.37,2013-01-13 21:50:00,
2013-01-13 16:59:00,45.3,44.2,30.05,SW,218,1.0,6.0,96,0.00,CLR,,0.02,WeatherDisplay:10.37,2013-01-13 21:59:00,
2013-01-13 17:04:00,45.5,44.4,30.05,SW,215,1.0,6.0,96,0.00,CLR,,0.02,WeatherDisplay:10.37,2013-01-13 22:04:00,
2013-01-13 17:10:00,45.3,44.2,30.05,SW,217,0.0,3.0,96,0.00,CLR,,0.02,WeatherDisplay:10.37,2013-01-13 22:10:00,
2013-01-13 17:20:00,45.5,44.4,30.04,SW,214,1.0,9.0,96,0.00,CLR,,0.02,WeatherDisplay:10.37,2013-01-13 22:20:00,
2013-01-13 17:30:00,45.6,44.6,30.04,SSW,207,0.0,6.0,96,0.00,CLR,,0.02,WeatherDisplay:10.37,2013-01-13 22:30:00,
2013-01-13 17:40:00,45.6,44.5,30.05,SW,215,2.0,13.0,96,0.00,CLR,,0.02,WeatherDisplay:10.37,2013-01-13 22:40:00,
2013-01-13 17:50:00,45.9,44.8,30.05,SSW,207,0.0,12.0,96,0.00,CLR,,0.02,WeatherDisplay:10.37,2013-01-13 22:50:00,
2013-01-13 17:59:00,45.6,44.6,30.05,SW,219,2.0,12.0,96,0.00,CLR,,0.02,WeatherDisplay:10.37,2013-01-13 22:59:00,
2013-01-13 18:04:00,45.6,44.6,30.05,SW,223,1.0,7.0,96,0.00,CLR,,0.02,WeatherDisplay:10.37,2013-01-13 23:04:00,
2013-01-13 18:10:00,45.7,44.6,30.06,SW,226,1.0,7.0,96,0.00,CLR,,0.02,WeatherDisplay:10.37,2013-01-13 23:10:00,
2013-01-13 18:20:00,45.5,44.4,30.07,WSW,247,0.0,5.0,96,0.00,CLR,,0.02,WeatherDisplay:10.37,2013-01-13 23:20:00,
2013-01-13 18:30:00,45.3,44.2,30.06,SW,234,0.0,0.0,96,0.00,CLR,,0.02,WeatherDisplay:10.37,2013-01-13 23:30:00,
2013-01-13 18:40:00,45.0,43.9,30.07,SW,234,0.0,5.0,96,0.00,CLR,,0.02,WeatherDisplay:10.37,2013-01-13 23:40:00,
2013-01-13 18:50:00,44.8,43.7,30.07,WSW,249,0.0,5.0,96,0.00,CLR,,0.02,WeatherDisplay:10.37,2013-01-13 23:50:00,
2013-01-13 18:59:00,44.2,43.2,30.07,SW,235,0.0,5.0,96,0.00,CLR,,0.02,WeatherDisplay:10.37,2013-01-13 23:59:00,
2013-01-13 19:04:00,44.2,43.2,30.07,WSW,242,0.0,7.0,96,0.00,CLR,,0.02,WeatherDisplay:10.37,2013-01-14 00:04:00,
2013-01-13 19:10:00,44.1,43.0,30.07,WSW,251,0.0,12.0,96,0.00,CLR,,0.02,WeatherDisplay:10.37,2013-01-14 00:10:00,
2013-01-13 19:20:00,43.9,42.9,30.07,WSW,237,2.0,10.0,96,0.00,CLR,,0.02,WeatherDisplay:10.37,2013-01-14 00:20:00,
2013-01-13 19:30:00,44.0,42.9,30.06,SW,236,1.0,5.0,96,0.00,CLR,,0.02,WeatherDisplay:10.37,2013-01-14 00:30:00,
2013-01-13 19:40:00,43.8,42.8,30.05,SW,223,0.0,9.0,96,0.00,CLR,,0.02,WeatherDisplay:10.37,2013-01-14 00:40:00,
2013-01-13 19:50:00,44.1,43.0,30.06,SW,234,0.0,11.0,96,0.00,CLR,,0.02,WeatherDisplay:10.37,2013-01-14 00:50:00,
2013-01-13 19:59:00,44.1,43.0,30.06,SW,224,3.0,9.0,96,0.00,CLR,,0.02,WeatherDisplay:10.37,2013-01-14 00:59:00,
2013-01-13 20:04:00,44.2,43.2,30.05,SSW,212,0.0,6.0,96,0.00,CLR,,0.02,WeatherDisplay:10.37,2013-01-14 01:04:00,
2013-01-13 20:10:00,44.2,43.2,30.05,SSW,212,1.0,5.0,96,0.00,CLR,,0.02,WeatherDisplay:10.37,2013-01-14 01:10:00,
2013-01-13 20:20:00,44.3,43.2,30.05,SW,228,3.0,7.0,96,0.00,CLR,,0.02,WeatherDisplay:10.37,2013-01-14 01:20:00,
2013-01-13 20:30:00,44.6,43.5,30.05,SW,233,1.0,13.0,96,0.00,CLR,,0.02,WeatherDisplay:10.37,2013-01-14 01:30:00,
2013-01-13 20:40:00,44.6,43.6,30.05,SW,235,1.0,10.0,96,0.00,CLR,,0.02,WeatherDisplay:10.37,2013-01-14 01:40:00,
2013-01-13 20:50:00,44.8,43.7,30.04,SW,229,6.0,15.0,96,0.00,CLR,,0.02,WeatherDisplay:10.37,2013-01-14 01:50:00,
2013-01-13 20:59:00,44.5,43.4,30.04,SW,229,0.0,5.0,96,0.00,CLR,,0.02,WeatherDisplay:10.37,2013-01-14 01:59:00,
2013-01-13 21:04:00,44.4,43.4,30.03,SW,236,1.0,7.0,96,0.00,CLR,,0.02,WeatherDisplay:10.37,2013-01-14 02:04:00,
2013-01-13 21:10:00,44.5,43.4,30.03,WSW,241,1.0,5.0,96,0.00,CLR,,0.02,WeatherDisplay:10.37,2013-01-14 02:10:00,
2013-01-13 21:20:00,44.2,43.2,30.04,WSW,241,2.0,14.0,96,0.00,CLR,,0.02,WeatherDisplay:10.37,2013-01-14 02:20:00,
2013-01-13 21:30:00,44.1,43.0,30.03,SW,233,0.0,4.0,96,0.00,CLR,,0.02,WeatherDisplay:10.37,2013-01-14 02:30:00,
2013-01-13 21:40:00,44.1,43.0,30.03,WSW,248,2.0,14.0,96,0.00,CLR,,0.02,WeatherDisplay:10.37,2013-01-14 02:40:00,
2013-01-13 21:50:00,44.1,43.0,30.03,WSW,240,2.0,10.0,96,0.00,CLR,,0.02,WeatherDisplay:10.37,2013-01-14 02:50:00,
2013-01-13 21:59:00,44.1,43.0,30.03,SW,230,1.0,2.0,96,0.00,CLR,,0.02,WeatherDisplay:10.37,2013-01-14 02:59:00,
2013-01-13 22:04:00,44.1,43.0,30.03,SW,226,0.0,2.0,96,0.00,CLR,,0.02,WeatherDisplay:10.37,2013-01-14 03:04:00,
2013-01-13 22:10:00,44.1,43.0,30.03,SW,219,2.0,12.0,96,0.00,CLR,,0.02,WeatherDisplay:10.37,2013-01-14 03:10:00,
2013-01-13 22:20:00,44.1,43.1,30.04,SSW,203,0.0,10.0,96,0.00,CLR,,0.02,WeatherDisplay:10.37,2013-01-14 03:20:00,
2013-01-13 22:30:00,44.1,43.0,30.03,SW,222,2.0,8.0,96,0.00,CLR,,0.02,WeatherDisplay:10.37,2013-01-14 03:30:00,
2013-01-13 22:40:00,44.1,43.0,30.03,SSW,213,0.0,5.0,96,0.00,CLR,,0.02,WeatherDisplay:10.37,2013-01-14 03:40:00,
2013-01-13 22:50:00,44.1,43.0,30.04,SW,229,6.0,10.0,96,0.00,CLR,,0.02,WeatherDisplay:10.37,2013-01-14 03:50:00,
2013-01-13 22:59:00,44.0,42.9,30.04,SSW,212,1.0,6.0,96,0.00,CLR,,0.02,WeatherDisplay:10.37,2013-01-14 03:59:00,
2013-01-13 23:04:00,44.1,43.0,30.04,SSW,211,1.0,8.0,96,0.00,CLR,,0.02,WeatherDisplay:10.37,2013-01-14 04:04:00,
2013-01-13 23:10:00,44.1,43.0,30.03,WSW,238,0.0,8.0,96,0.00,CLR,,0.02,WeatherDisplay:10.37,2013-01-14 04:10:00,
2013-01-13 23:20:00,43.9,42.8,30.03,SW,220,2.0,14.0,96,0.00,CLR,,0.02,WeatherDisplay:10.37,2013-01-14 04:20:00,
2013-01-13 23:30:00,43.9,42.8,30.03,SW,218,2.0,14.0,96,0.00,CLR,,0.02,WeatherDisplay:10.37,2013-01-14 04:30:00,
2013-01-13 23:40:00,43.9,42.8,30.03,SW,225,1.0,7.0,96,0.00,CLR,,0.02,WeatherDisplay:10.37,2013-01-14 04:40:00,
2013-01-13 23:50:00,43.8,42.7,30.04,SW,230,1.0,14.0,96,0.00,CLR,,0.02,WeatherDisplay:10.37,2013-01-14 04:50:00,
2013-01-13 23:59:00,43.7,42.6,30.04,SW,232,1.0,7.0,96,0.00,RA,,0.00,WeatherDisplay:10.37,2013-01-14 04:59:00,